Back to year calendar - Excel file (216k)

Kingston Communications Beverley 10k Road Race

12th May 2002

Results courtesy of Brian Richardson
 
PosForenameSurnameCatPsnTeamTime
1AndyPARKERM1Bolton United Harriers0:31:06
2DarranBILTONM2Kingston on Hull AC0:31:31
3AndrewKILDINGM3City of Sheffield0:32:01
4RichardFINDLOWM4Bradford Airedale AC0:33:09
5JohnCANTM5Thames Hare and Hounds0:33:24
6LanceKIRLEWM40+1East Hull Harriers0:33:28
7AndrewMORLEYM6Hornsea Harriers0:33:32
8RobWATTM40+2Beverley AC0:33:33
9StephenRENNIEM45+1Kingston on Hull AC0:34:28
10RickieWILSONM7Scarboro' AC0:34:31
11RichardGAYM50+1Beverley AC0:34:37
12AndyHUGHESM8Kingston on Hull AC0:34:48
13MichaelSIDDALLM40+3Pock' Runners0:35:01
14NickMARSHM9Louth A C0:35:23
15MelanieHAYWARDL1Beverley AC0:35:25
16MarkOGLESBYM10Beverley AC0:35:26
17AdamJORDANNDBx 0:35:30
18AndrewWATSONM11Barracuda Tri0:35:35
19AndrewMCCARTNEYM12Leeds + Bradford Tri0:35:48
20MarkDALTONM40+4Beverley AC0:35:51
21ColinLANGLEYM13City Of Hull0:35:53
22DarrenWILLIAMSM14Bridlington Road Runners0:35:55
23IanSCOTTM45+2Quakers RC0:35:58
24BenRUMFORDMU181Kingston on Hull AC0:36:07
25AdamFOZZARDM15Bridlington Road Runners0:36:10
26PhillTAYLORM16Bridlington Road Runners0:36:24
27JonathonFROSTMU182 0:36:25
28StuartBUCHANM40+5Kingston on Hull AC0:36:26
29RonCHAISTYM45+3East Hull Harriers0:36:30
30MichaelBAGGOTTM45+4Kingston on Hull AC0:36:44
31DeanFULSTONM17Hull Achilles0:37:07
32PhilipMARTINM18Holm Harriers0:37:14
33SteveHATTONM19 0:37:17
34GrahamWILKINSONM45+5East Hull Harriers0:37:20
35JonathanMACGREGORM20St Peters School0:37:25
36StuartSPOONERM40+6Bridlington Road Runners0:37:27
37MarkSYMONSM40+7City Of Hull0:37:31
38RickyCARROLLM21Kingston on Hull AC0:37:32
39EddieREXM22East Hull Harriers0:37:35
40JaneSHIELDSL40+1Sheffield AC0:37:36
41DarrenJOWSEYM40+8 0:37:38
42RobertGRAINGERMU183Beverley AC0:37:41
43DavidBALDWINM23Scarboro' AC0:37:44
44KevinLEWISM24Bridlington Road Runners0:37:44
45DaphneELLMOREL50+1Wold Vets AC0:37:44
46ChristopherHODGSONM25East Hull Harriers0:37:50
47AndrewWARDILLMU184Loftus AC0:37:55
48SteveTINEGATEM40+9East Hull Harriers0:38:07
49AndyCAVEM26 0:38:17
50LeslieHUDSONM45+6East Hull Harriers0:38:23
51SteveARNOLDM45+7Bridlington Road Runners0:38:24
52JosephSPILMANMU185St Peters School0:38:25
53SusanGARRODL45+1Goole Vik Striders0:38:28
54DavidWADDINGTONM27East Hull Harriers0:38:35
55DouglasBATTYM40+10Bridlington Road Runners0:38:38
56PhilDEWBERRYM50+2Hull Springhead Harriers0:38:41
57SteveKEOGHM45+8White City Road Runners0:38:47
58AndySMITHM28Knavesmire Harriers0:38:48
59AlanKENDRAM29Pock' Runners0:38:49
60Alan HenryWALLISMU186 0:38:50
61DavidMATHERM45+9Kingston on Hull AC0:38:52
62MichaelTANNERMU187Kingston on Hull AC0:38:59
63DavidLAWSONM30 0:39:01
64IanSCOTTM40+11 0:39:03
65MartinREGANM31Hull University AC0:39:04
66TimothyPALMERM32Driffield Striders0:39:06
67PaulSHARPMU188Kingston on Hull AC0:39:08
68ShanePAGEM40+12City Of Hull0:39:13
69MichaelATKINSON(NON- COUNTER)M55+1Kingston on Hull AC0:39:18
70ChrisLAMSWOODM33 0:39:25
71JohnTHOMPSONM40+13Humberside Police0:39:37
72RussellHARDIMANM34 0:39:40
73BarryDODGEM50+3Louth A C0:39:41
74AndyCODYMU189Minster Fitness Club0:39:45
75RobWORRELLM35Minster Fitness Club0:39:48
76AndyARNOLDM40+14 0:39:50
77AnthonyWAREM40+15East Hull Harriers0:39:54
78CharlieHAZLERIGGMU1810St Peters School0:39:58
79JimWHITFIELDM55+2East Hull Harriers0:39:59
80KevinMCMANUSM45+10City Of Hull0:40:03
81IanJAMESM40+16Hull Springhead Harriers0:40:05
82PhilipGIBSONM36Fenners Flyers0:40:06
83Peter JohnWOODM37 0:40:07
84AlanBAYSTONM38Barracuda Tri0:40:11
85JeanetteWILSONL35+1East Hull Harriers0:40:16
86NickBULLM39 0:40:20
87AndrewROWBOTHAMM40 0:40:21
88JamesWILKINSONM41 0:40:23
89HelenTUNSTALLL2 0:40:27
90MalcolmDUNNEM40+17Humberside Police0:40:31
91DavidBELLM42White City Road Runners0:40:39
92DavidANDERSONM40+18Fenners Flyers0:40:40
93AlanHOLLOWAYM40+19 0:40:41
94PeterCROWM40+20 0:40:47
95DawnGIBBSL45+2St Peters School0:40:51
96PaulANDREWSM43East Hull Harriers0:40:52
97AdamHARDYM44 0:40:53
98AngelaTOOBY-SMITHL40+2St Peters School0:40:54
99NickWILSONM45 0:40:55
100PaulGREENM46City Of Hull0:40:56
101PhilipDANNATTM47City Of Hull0:40:56
102AdamPLUMTREEM48Priory Park Vw0:41:03
103MarkLANSELLM40+21Scarboro' AC0:41:07
104RichardWINDERM50+4City Of Hull0:41:12
105JulieCRANEL40+3East Hull Harriers0:41:20
106RogerSHIPTONM49 0:41:24
107JulieBARLEYL35+2Kippax Harriers0:41:25
108PhillipREAYM50Haltemprice RRC0:41:27
109SteveWARDELLM51 0:41:28
110StephenCOVENEYM50+5City Of Hull0:41:33
111JohnCOOKEM45+11 0:41:35
112TomDAYM52Cleethorpe AC0:41:39
113PhilipPOWDITCHM50+6Driffield Striders0:41:40
114ScottMALLINSONM53 0:41:43
115ChristopherCLAYTONM54Scarboro' AC0:41:43
116DavidWRAYM55+3Louth A C0:41:43
117AnthonyREYNOLDSM55 0:41:46
118JOhnHICKLINGM40+22 0:41:49
119AlastairMC CANNM56Hull Springhead Harriers0:41:49
120RoyDENNISONM50+7City Of Hull0:41:49
121StephenBOLTONM57 0:41:51
122VernonCHAPMANM58 0:41:51
123LeeSMITHM59 0:42:03
124SamBROADBENTM60 0:42:04
125KristianGROOMM61 0:42:05
126StephanMULLIGANM62Minster Fitness Club0:42:05
127StephenSYMONSM63 0:42:05
128JamesTODDM64Minster Fitness Club0:42:05
129OwenWILLIAMSMU1811Kingston on Hull AC0:42:08
130JonathanSLATERM65 0:42:10
131MarkSTAFFORDM66 0:42:12
132ColinWOODCOCKM40+23 0:42:12
133BrynnenMASSEYM40+24 0:42:14
134Simon MarkWALTERSM67Yorkshire Coast Losers0:42:14
135AlnHOODM50+8Knavesmire Harriers0:42:14
136MarkSTATHERSM68Beverley AC0:42:22
137MikeBAKERM69Monkey Feet0:42:24
138KarenGRANTL3 0:42:26
139RobertTHOMPSONM45+12 0:42:27
140TimSAVAGEM70David Lloyd Team0:42:34
141JohnGREENM71 0:42:35
142JamesBUTTERWORTHMU1812St Peters School0:42:37
143BruceWILLIAMSM40+25 0:42:42
144SimonBRIGDENM72Beverley AC0:42:44
145MalcolmDENISONM40+26Kirkstall Harriers0:42:45
146LesleyUSHERM45+13Hull Springhead Harriers0:42:47
147Paul NigelCARTWRIGHTM45+14 0:42:49
148DavidGOULDM45+15 0:42:54
149ChrisDUNNM73Beverley AC0:42:55
150DavidWALKERM40+27City Of Hull0:42:56
151MikeJACKSONM74Hull Springhead Harriers0:42:57
152OlivierCLEMENCONM75 0:42:58
153PhilipBELLM40+28 0:42:59
154DavidREADINGM55+4Scarboro' AC0:43:01
155FrankTHOMPSONM40+29 0:43:05
156StephenGRIFFITHSM76 0:43:08
157GrahamCOOKM77 0:43:09
158SteveINGLEDEWM45+16Selby Striders0:43:11
159ColinWATSONM50+9Hull Springhead Harriers0:43:12
160GarryNEALM78 0:43:20
161PaulBRITTAINM79 0:43:20
162FionaMOOREL35+3Hull Springhead Harriers0:43:21
163DavidTHOMSONM40+30City Of Hull0:43:22
164Martin JohnRUMFORDM45+17 0:43:23
165IbmyIOSEM80Acorn York0:43:25
166PaulSPROTTM45+18 0:43:26
167SimonFASNACHTM40+31 0:43:27
168RobbieFOWLERMU1813Kingston on Hull AC0:43:28
169BryanBYWORTHM55+5 0:43:29
170PaulRICHARDSONM81 0:43:37
171JamieFARRM82 0:43:39
172CliffordGALEM50+10Hull Springhead Harriers0:43:40
173TonySTEPHENSONM40+32Fenners Flyers0:43:40
174RichardBOWERSM40+33Fenners Flyers0:43:40
175Graham PeterHAVERCROFTM40+34East Hull Harriers0:43:43
176MarkHARRISONM83 0:43:43
177CallumFRASERM84 0:43:47
178PatrickHOUGHTONM85 0:43:47
179MartinHALLM40+35Vicar Lane Bouncers0:43:47
180JamesO'REILLYMU1814 0:43:47
181SteveBRIGGSM45+19 0:43:47
182AndyNEALEM86 0:43:47
183DominicMACMANUSM40+36White City Road Runners0:43:48
184BarryEDWARDSM40+37 0:43:48
185DavidDODGSONM50+11Hull Springhead Harriers0:43:49
186JustinMOOREM87Priory Park Vw0:43:50
187AmandaODDIENDBx 0:43:51
188LeeSARGESONM88 0:43:52
189PaulBROWNINGM89 0:43:52
190PaulBAINBRIDGEM50+12Stainland Lions0:43:52
191LaraGIBBSLU181St Peters School0:43:53
192JasonODDIENDBx 0:43:54
193MikeWARDELLM90 0:43:55
194ChristopherHEALYM91 0:43:56
195DarrenRODMELLM92 0:44:00
196StevenHOLMESM45+20City Of Hull0:44:10
197DarrenMOOREM93Northern Monkeys0:44:10
198JamesSUGDENMU1815St Peters School0:44:10
199StuartHINESM45+21White City Road Runners0:44:10
200JackieSYMONSL40+4City Of Hull0:44:10
201PaulCAIRNSM94David Lloyd Team0:44:20
202NeilSERGEANTM50+13Beverley AC0:44:21
203FrankTHOMASM40+38Cleethorpe AC0:44:22
204DavidHOUGHM40+39 0:44:23
205StephenDOBBSM40+40 0:44:25
206StephenBROOKM55+6 0:44:30
207MikeDUFFYM40+41St Peters School0:44:32
208MarkOLLERENSHAWM95 0:44:34
209RobertCROOKM96 0:44:36
210KevinKILKENNYM40+42Kingston on Hull AC0:44:38
211SteveGIRKINGM97 0:44:40
212DavidDIXONM98White City Road Runners0:44:41
213JohnFEWINGSM50+14 0:44:42
214JamesGODFREYM99 0:44:44
215RobertJEFFERYM100 0:44:45
216KeithHARRISONM40+43 0:44:46
217EdPRESCOTTM101 0:44:48
218GerryORCHARDM45+22York Acorn0:44:50
219CarkHENRICKSONM102 0:44:51
220IanFRASERM103 0:44:51
221RichardPARKINM40+44 0:44:52
222RichardSMITHM104 0:44:52
223CraigTAMMINEWM105Priory Park Vw0:44:52
224PatrickCATTLEM40+45Fitness First0:44:53
225SimonWALKERM106 0:44:55
226DianaFULSTONL35+4Hull Achilles0:44:56
227JulianHUNTM107East Hull Harriers0:44:57
228DavidTUFFSM108 0:44:58
229AndrewCHAMBERSM109Fitness First0:44:59
230TomCUTHBERTM110 0:45:00
231NickNETTLETONM111 0:45:01
232GeoffWALKERM50+15Hull Springhead Harriers0:45:04
233SteveBENHAMM40+46Fenners Flyers0:45:05
234JaneMORLEYL45+3Hull Achilles0:45:10
235ChrisDUFFEYM112White City Road Runners0:45:12
236SteveKITCHMANM113 0:45:14
237JamesFEARNM114 0:45:16
238PaulCROSSLEYM45+23 0:45:18
239AndrewFOSTERM115 0:45:20
240LeslieMOODYM40+47 0:45:22
241PeterSAVAGEM45+24 0:45:24
242Kathryn MaryJESSOPL4 0:45:25
243RichardMILLBANKM116 0:45:27
244DanielHAMMONDM117 0:45:30
245DarenSMITHM118Barracuda Tri0:45:32
246GuyGIBSONM119 0:45:33
247MarcusALCORNM55+7Yorkshire Coast Losers0:45:34
248PeterBAINBRIDGEM120St Peters School0:45:36
249DavidEDWARDSM121East Hull Harriers0:45:38
250AndrewTOMLINSONM122 0:45:40
251LynnRANDL5 0:45:41
252DavidFOUNDM123 0:45:42
253JohnCAWLEYM124Barracuda Tri0:45:43
254GraemeTINEGATEM40+48 0:45:45
255MattDAVIESM125 0:45:45
256PhillipDUCKM126Knavesmire Harriers0:45:46
257MichaelCUNNINGHAMM40+49 0:45:50
258DuncanHEWITTM50+16 0:45:51
259SteveHAMPSHIREM127Pickering RC0:45:52
260MartinSMALLPAGEMU1816St Peters School0:45:52
261SueBROWNL35+5Scarboro' AC0:45:53
262AndrewHARPERM128Robin Hood0:45:54
263SimonSPENCERMU1817St Peters School0:45:55
264IanMOOREM55+8 0:45:56
265NeilSMITHM129 0:45:56
266NeilMATKINM130St Peters School0:45:57
267PeterHUGOZONM131 0:45:57
268LesSELLERSM40+50Selby Striders0:45:58
269StewartCLARKM132 0:46:00
270JohnPAULINM40+51 0:46:01
271AlisonHUNTERL35+6Kippax Harriers0:46:02
272MelvynCROSSM50+17 0:46:04
273GrahamPYRAHNDBxKC Crawlers0:46:06
274BrianCOOMBESM45+25 0:46:10
275DavidBROWNM133 0:46:11
276PatrickLODGEM50+18 0:46:12
277PeteTHOMSONM134Thomsons Trotters0:46:14
278GrahamWHITELAMM135Monkey Feet0:46:16
279AndrewBENNETTM136 0:46:18
280GavinSMITHM40+52 0:46:18
281DavidWILLINGHAMM45+26 0:46:19
282WalterKENTM40+53Winterton0:46:20
283PhillipWHITEM137 0:46:21
284DavidPARKSM55+9 0:46:21
285MalcolmRHODESM50+19Rotherham Har + AC0:46:21
286MaxwellFLEMINGM40+54Humberside Police0:46:22
287MatthewRIPLEYM138 0:46:22
288GavinJACKSONM40+55 0:46:23
289ZackaryWELBOURNMU1818 0:46:24
290LisaHARTLEYL6 0:46:25
291RichardHEMSWORTHM45+27 0:46:26
292WilliamJONESM50+20 0:46:28
293ChrisMCKENNAM139 0:46:28
294PennyDARMODYL40+5East Hull Harriers0:46:29
295DavidLISTERM55+10City Of Hull0:46:30
296SteveRUSTILLM50+21 0:46:31
297Edward GeorgeWOLVERSONM140 0:46:32
298PaulCUSSONM45+28Don + Stain AC0:46:32
299StephenBROWNM141 0:46:32
300Steven MichaelDAWSONM40+56 0:46:33
301AllanCUFFM55+11East Hull Harriers0:46:34
302JamesHARPERM142Robin Hood0:46:35
303KevinDENHAMM40+57 0:46:35
304RobertNORTONM55+12Scarboro' AC0:46:36
305ShaunOLIVERM143Fenners Flyers0:46:40
306JosephHARKERM55+13Durham City Harriers0:46:41
307GeoffREVELLM40+58 0:46:41
308RichardHUNTERM144Kippax Harriers0:46:42
309MatthewCARPENTERM145 0:46:42
310DavidWILEYM45+29City Of Hull0:46:44
311PaulOLDHAMM146 0:46:44
312SimonHEWITTM147Leftfooters0:46:45
313JamesASHM148 0:46:46
314CarlBURTONMU1819St Peters School0:46:47
315KeithBROCKLESBYM40+59 0:46:48
316SeanKELLYM149 0:46:48
317VerenaGOLACHL40+6 0:46:49
318MartynFISHERM50+22 0:46:50
319RichardMILLICANM50+23Tadcaster Harriers0:46:51
320StuartARNOTTM150 0:46:52
321StephenPIKEMU1820St Peters School0:46:53
322StephenCALEYMU1821St Peters School0:46:54
323AndrewJOLLEYM40+60 0:46:55
324SarahPAINTERL7 0:46:55
325ChristopherGRAYM151 0:46:56
326WilliamBARLOWM50+24 0:46:56
327BenGEAREYM152 0:46:57
328HenryCHAPMANM153 0:46:58
329NathanRICHARDSONM154Billy Bear Bunch0:46:58
330IanPROCTORM155 0:47:00
331RoyTRIBICKM55+14Scarboro' AC0:47:01
332NeilWARDM156 0:47:02
333GraemeLAWTONM157 0:47:03
334JustinRICHARDSM158 0:47:04
335VictoriaSTEVENSONL8 0:47:05
336RichardHORTONM159 0:47:06
337PaulYOUNGM45+30 0:47:07
338MartinYOUNGM160 0:47:10
339MichaelHALLM161St Peters School0:47:11
340ChrisDAKEYNEM40+61 0:47:12
341JasperPENDLEBURYM162Bolton United Harriers0:47:14
342GaryLEEKM163 0:47:15
343JohnPHELANM55+15Wold Vets AC0:47:20
344PaulHEARNM164 0:47:21
345PeterNICHOLM40+62York Acorn0:47:22
346LizPARKINL9 0:47:23
347PaulSHEPHERDM165 0:47:25
348FrankCLARKSONM40+63 0:47:26
349SteveOXLEYM166 0:47:26
350JamesCLARKEMU1822St Peters School0:47:27
351AlasterMACLEODMU1823St Peters School0:47:28
352RoyBARLEYM55+16Kippax Harriers0:47:29
353JenniferORMERODL10Hull Achilles0:47:29
354ChrisFAULKNERM167 0:47:30
355DavidTUCKERM168 0:47:31
356BenWARDMU1824St Peters School0:47:32
357MartinSLATERM169 0:47:33
358ChristopherHURDM40+64David Lloyd Team0:47:35
359PatrickSTEPHENM40+65St Peters School0:47:36
360David JohnHORNSBYM170 0:47:37
361Richard [soapy]WATSONM171 0:47:37
362MalachyBRANNIGANM172 0:47:38
363SteveGAMBLEM40+66 0:47:40
364SimonGOWERM40+67City Of Hull0:47:41
365DavidTUCKERM40+68City Of Hull0:47:42
366AndyHAGYARDM40+69 0:47:42
367PeirsBEVANMU1825St Peters School0:47:43
368TanwenGRAYL11 0:47:44
369Neil AlfredMILLERM40+70 0:47:46
370NigelSAWYERM173Driffield Striders0:47:48
371DavidPERCIVALM174 0:47:50
372ChristopherTERRYM55+17 0:47:51
373JackieMILLANL35+7 0:47:51
374GailTOMBSL45+4Ackworth R R0:47:52
375KevinBROOKSM175 0:47:53
376StephenPAYNEM176 0:47:54
377AndrewCHALMERSMU1826St Peters School0:47:56
378RichardSCOTTMU1827St Peters School0:47:58
379CraigHADFIELDM177 0:48:00
380MichaelBRADSHAWMU1828St Peters School0:48:02
381PhilQUINBYM50+25 0:48:04
382AndrewCLARKM45+31 0:48:06
383NoelHILLM45+32 0:48:08
384CaroleBLACKWELLL45+5 0:48:10
385MichaelSCOTTM45+33Quakers RC0:48:10
386DavidWALLERM178 0:48:11
387LesleyBAYESL50+2Scarboro' AC0:48:13
388AndrewTODDM179 0:48:14
389LisaBEALL12 0:48:15
390PaulGILLM180 0:48:17
391NormanBRITTONM50+26 0:48:18
392CraigHEWITTM181Leftfooters0:48:18
393RobertSIMSONM40+71 0:48:19
394DarrenABBEYM182Northern Monkeys0:48:20
395JayneEARLEL13East Hull Harriers0:48:20
396Michael ColinJACKSONM183 0:48:21
397RodROBINSONM55+18Pock' Runners0:48:23
398DerekPATERSONM50+27St Peters School0:48:23
399TonyWRIGHTM55+19 0:48:23
400GrahamHAWKINSM50+28Bridlington Road Runners0:48:23
401ChristopherAINSLEYM184Fairhurst Thunderbolts0:48:29
402AndrewWALTONM40+72 0:48:30
403IanRUSSELLM185Fairhurst Thunderbolts0:48:31
404DeborahDUNKERLEYL40+7Hull Springhead Harriers0:48:32
405JonCLARKM186 0:48:33
406RichardCLARKM187 0:48:34
407NeilHILTONM40+73East Hull Harriers0:48:36
408SaraGUYL14Hymers College0:48:40
409SteveWILSONM40+74 0:48:41
410IanHOLMESM188 0:48:42
411HelenSAMPSONL40+8City Of Hull0:48:43
412JamesSAMPSONM189City Of Hull0:48:44
413MikeJOHNSONM190 0:48:44
414PhilipHARVEYM40+75White City Road Runners0:48:45
415ClaireCOWLINGL15 0:48:46
416JimBEATONM55+20 0:48:47
417TimPEDLEYM55+21St Peters School0:48:47
418RobinSMITHM45+34 0:48:48
419MarkSULLIVANM40+76Knavesmire Harriers0:48:48
420DavidROOMSM191City Of Hull0:48:49
421HelenBASHFORDL16 0:48:50
422SteveHANDLEYM192 0:48:50
423GrahamHARPERM45+35Thomsons Trotters0:48:51
424AnthonySCHUMACHERM45+36Knavesmire Harriers0:48:52
425AndrewGARSIDEM193 0:48:55
426MarkPALMERM194Palmers Chalmers0:48:56
427AndySMITHM195Palmers Chalmers0:49:00
428StephenSEATONM196 0:49:05
429FrankLEADBETTERM55+22Wold Vets AC0:49:06
430AlanHIGHM197 0:49:07
431MichaelSYKESM40+77 0:49:08
432DerekPALMERM198 0:49:09
433JohnMATTINSONM199 0:49:10
434PaulHOPKINSONM40+78 0:49:11
435GillFENTONL35+8 0:49:12
436GordonJENNEYM40+79 0:49:13
437NeilMILLANM40+80 0:49:14
438SharonDEANL17Driffield Striders0:49:14
439Janice LesleyHUDSONL40+9East Hull Harriers0:49:16
440IanMORWOODM50+29 0:49:17
441DavidBUTTM45+37 0:49:20
442PaulJORDANM40+81 0:49:21
443SimonGREENEM45+38Reebok running club0:49:22
444Terry JohnSEATONM200 0:49:22
445LeeRICHARDSONM201KC Crawlers0:49:23
446IanJOHNM40+82Haltemprice RRC0:49:24
447StephenTHIRSKM40+83 0:49:25
448JoanneDOOLEYL18 0:49:26
449DavidMARKHAMM45+39 0:49:27
450JudithFITZGERALDL19Flaxton Runners0:49:27
451PaulTAYLORM202St Peters School0:49:28
452BryanHOEM45+40 0:49:29
453BrianWATTAMM45+41 0:49:29
454MarkBISHOPM203 0:49:30
455SeanRUSHM204Northern Monkeys0:49:30
456AndrewWRIGHTM205 0:49:30
457JimROBERTSONM50+30 0:49:31
458AndrewDIXONM206Leftfooters0:49:32
459JohnBRECKOWM50+31Kingston on Hull AC0:49:35
460KevinANHOLMM40+84Withernsea Harriers0:49:38
461AlanDALEM40+85 0:49:40
462StewartGRAHAMM207 0:49:41
463JulieBUSHELLL35+9York Acorn0:49:42
464FrankWALTONM55+23Scun + Dist AC0:49:43
465SimonDIXONM208 0:49:45
466DavidSPENCERM45+42 0:49:46
467AndersMC LOCKLANM209Minster Fitness Club0:49:47
468DavidGLENVILLEM45+43 0:49:47
469AmandaDEANL40+10 0:49:48
470DavidTWILTONM40+86 0:49:48
471MauriceMONTEITHM210St Peters School0:49:49
472TonyPICKERINGM45+44 0:49:49
473MarkWRESSELLM40+87Wold Vets AC0:50:00
474WilliamANDREWSM211Fairhurst Thunderbolts0:50:02
475SimonWAKELINGM212Fairhurst Thunderbolts0:50:04
476WilliamGIBSONM45+45 0:50:06
477MikeARCHIBALDM213 0:50:08
478JanetLAWRENCEL50+3Scarboro' AC0:50:09
479DianneSYGROVEL35+10 0:50:14
480MarkROWEM214 0:50:14
481SusanMOODYL40+11 0:50:14
482NIGELBATTYM215Fairhurst Thunderbolts0:50:14
483MaureenKIRBYM55+24Hull Springhead Harriers0:50:14
484StephenRICHMONDM45+46 0:50:15
485DanielFOSTERM216 0:50:17
486JonathanPERCIVALM217 0:50:20
487HollyCAMPBELLLU182 0:50:21
488PaulTOWSEM40+88 0:50:22
489MatthewSTATHERSMU1829Beverley AC0:50:23
490DanBETHELLM218 0:50:24
491RobCOLEM40+89 0:50:25
492EmmaRIGGOTTL20Beverley AC0:50:26
493KevinCODYM40+90Minster Fitness Club0:50:28
494AntonioTEIXEIRAM219Billy Bear Bunch0:50:29
495MelWILSONM50+32Fenners Flyers0:50:30
496JackieBREWISL45+6Beverley AC0:50:31
497PatrickKITCHENM220 0:50:32
498AdrianMELLORM45+47 0:50:33
499Simon DouglasHILLARYM221 0:50:39
500NathanSAVAGEM222St Peters School0:50:40
501KarlHOLMESM223Cleethorpe AC0:50:41
502LesCOEM40+91 0:50:42
503JamesILETTM224 0:50:43
504AnnaCLARKELU183St Peters School0:50:44
505RhylJONESM45+48 0:50:45
506MathewWELSHM225St Peters School0:50:46
507GeoffDONKINM40+92 0:50:47
508LucySTAMFORDL21 0:50:48
509TomTHEARM226 0:50:50
510TobiasROBINSONMU1830St Peters School0:50:51
511SimonSTEPHENSONM227 0:50:53
512Christopher PaulWESTERMANM228 0:50:53
513DannyJORDANM229 0:50:55
514TimothyJARVISM40+93 0:50:56
515HeatherMITCHELLL45+7West Yorks Police0:50:56
516MarkBRENNANM230 0:50:57
517RobertGRAINGERM50+33 0:50:58
518JohnDANIELM40+94 0:50:58
519StellaDINSDALEL50+4White City Road Runners0:50:58
520MichaelBARRETTM231 0:50:59
521DebbieSKELTONL22 0:50:59
522ChristopherWHITELEYM40+95 0:51:00
523SusanWHITELEYL35+11 0:51:02
524MichelleWILSONM232 0:51:03
525RogerCLARKM50+34 0:51:04
526NoelLOOKSONM233 0:51:04
527MikeTODDM234Minster Fitness Club0:51:05
528DebbieADCOCKM40+96 0:51:07
529JohnGODFREYM55+25East Hull Harriers0:51:09
530IanSUDDABYM235 0:51:12
531JohnCOOKM40+97 0:51:13
532DavidARMSTRONGM40+98 0:51:14
533NickHAZELM40+99 0:51:15
534MichaelMORRISMU1831St Peters School0:51:16
535PaulJUDSONM40+100 0:51:22
536SarahNESFIELDL35+12 0:51:25
537MalcolmREVELLM40+101 0:51:30
538SimonHENDERSONM236 0:51:30
539DonnaREYNOLDSL45+8 0:51:31
540RanjitCHATTERJEEM237 0:51:32
541JamesWALKERM238St Peters School0:51:34
542NeillBONESM239 0:51:36
543KiethSISSONSM40+102 0:51:38
544NatalieWILLIAMSL35+13 0:51:39
545Daren RaymondSEATONM240 0:51:41
546RichOSGERBYM241The Howling Fools0:51:42
547DavidSCOTTM40+103The Howling Fools0:51:42
548DebraSAWYERL35+14Driffield Striders0:51:43
549MichaelEGLINGTONM242 0:51:44
550GregWALKERM243 0:51:45
551TomBOYLEMU1832St Peters School0:51:46
552BrianLONGM40+104 0:51:47
553StephenJUDGEM45+49 0:51:48
554IanENTWISTLEM244 0:51:48
555RobertBAINBRIDGEM50+35 0:51:48
556RayLITTLEM245 0:51:50
557JohnKINGMU1833St Peters School0:51:50
558ChristopherSENIORM246 0:51:50
559PeterHENDERSONM55+26 0:51:50
560Martin JamesSMITHM247 0:51:50
561AndrewHALLM248 0:51:52
562BarryFLETCHERM50+36East Hull Harriers0:51:52
563PeterCHOWMANSKIM45+50 0:51:56
564TraceyPATRICKL35+15 0:51:58
565DavidMELLM45+51Road Runners Club0:52:00
566FionaCARMODYLU184 0:52:01
567JohnCARMODYM45+52 0:52:02
568PaulABLETTM40+105 0:52:05
569IanSMITHM249 0:52:06
570GlennMOUNTFORDM250 0:52:08
571JohnHORNCASTLEM251Monkey Feet0:52:10
572LeeCASWELLM252 0:52:11
573CharlottAXELSSONL23 0:52:12
574NevilleHANCOCKM55+27 0:52:14
575TraceyBENNETTL35+16 0:52:18
576PhilDEXTERM253 0:52:20
577CharlesLEWINM45+53Flaxton Runners0:52:21
578PhilKAYEM254 0:52:22
579MarkSMITHM255 0:52:24
580JohnHORTONM55+28Gainsborough striders0:52:26
581PeterWOODM55+29 0:52:26
582StephenGREENHALGHM40+106 0:52:29
583RachaelBYASL35+17 0:52:29
584ChrisPIKEM55+30 0:52:30
585DavidBELLM40+107East Hull Harriers0:52:32
586StevenMYERSM45+54 0:52:34
587DavidSLEIGHTM256 0:52:36
588LyndaCOOKEL24 0:52:40
589PatriciaJEFFERYL25 0:52:42
590FrankMAKISONM50+37Steel City Striders0:52:43
591JimTIPTONM257 0:52:44
592AdamLOWERYM258Leftfooters0:52:46
593MarcusDENNISONMU1834St Peters School0:52:48
594EricJOHNSTONEM45+55 0:52:49
595SimonBURNSM40+108 0:52:49
596DuncanHAWTHORNE-ROBSONM259 0:52:50
597JulieCLAYTONL35+18Scarboro' AC0:52:54
598DavidBANCROFTM45+56Ackworth R R0:52:56
599RebeccaLOUTHL26 0:52:58
600KaySLATERL35+19 0:52:59
601JamesCAREWM260Jarvis Joggers0:53:00
602PhilipWALTONMU1835St Peters School0:53:01
603DamianDIXONM261 0:53:02
604JillNEWBORNL35+20 0:53:03
605SueWARDILLL35+21 0:53:07
606JennyMASONL27 0:53:08
607MargaretROBINSONL50+5 0:53:09
608DavidWALMSLEYM55+31 0:53:10
609RobertTHOMSONM55+32Thomsons Trotters0:53:12
610DorothyWINDERL45+9Hornsea Harriers0:53:13
611SophieMILNES-COATESLU185St Peters School0:53:14
612GordonMCCANNM50+38 0:53:20
613TobyHUMPHREYMU1836St Peters School0:53:22
614AlanSCARBOROUGHM40+109 0:53:23
615DianeCLAUGHTONL35+22 0:53:25
616RogerDENNISM40+110 0:53:27
617GrahamBENTONM45+57Maltby RC0:53:30
618FrancesHARRISONL28 0:53:34
619LouiseFEARNL29 0:53:35
620DavidCRAMPTONM262 0:53:36
621DavidDALEM40+111 0:53:38
622AndrewPRITCHARDM263 0:53:40
623MarkSMITHM264 0:53:41
624PeterHALEM50+39 0:53:44
625JackieROBINSONL50+6Pock' Runners0:53:47
626MichaelSALVIDGEM40+112 0:53:50
627DouglasHOLDERM45+58Tees E And N Yorks Ambulance0:53:50
628StevenHOLLIDAYM265 0:53:52
629DaveHAREM266 0:53:56
630MarshallSANDERSONM50+40Trenton Terriers0:53:58
631JonathamBERRIMANM267 0:53:59
632PaulCLARKEM55+33Haltemprice RRC0:54:00
633AnneWOODL45+10 0:54:06
634SandraWILSONL50+7 0:54:07
635RaymondJANESMU1837St Peters School0:54:13
636JamesHUTSONM45+59 0:54:18
637JohnCAMERONM268The Howling Fools0:54:21
638RichardTUPLINM269Minster Fitness Club0:54:22
639Ruth MargaretOXTOBYL30 0:54:24
640TimREDMANM270 0:54:26
641HowardGALLANTM45+60 0:54:29
642WendyTOMLINSONL31 0:54:30
643JonathanBUTTERWORTHMU1838St Peters School0:54:33
644TimSMITHM271 0:54:34
645Marie AliceBOWERL32Sutton in Ashfield Harriers0:54:36
646DavidCLARKM272 0:54:42
647AntonyAPPLEYARDM273 0:54:45
648MarkSCHOFIELDM50+41 0:54:46
649RichardJESSOPM55+34 0:54:48
650Andrew DavidKEMPM274 0:54:48
651StevenDEANM275 0:54:49
652KeithROBINSONM40+113 0:54:50
653WilliamWALKERM40+114 0:54:51
654MichelleSHENTONL33 0:54:52
655AnneHAUGHANL45+11 0:54:52
656DonHAUGHANM55+35 0:54:53
657JohnPOTTSM276 0:54:54
658NicolaPLANTL34 0:54:55
659MarkWALMSLEYM277 0:54:55
660JoanHERONL45+12 0:54:56
661PaulATKINSONM40+115Jarvis Joggers0:54:57
662KayRUMFORDL40+12 0:54:58
663JanetPARSONSL35+23 0:54:58
664RichardSMITHM278 0:54:58
665AlisonWESTWATERL35+24 0:54:59
666AnnHENDERSONL50+8 0:55:00
667JohnROBERTSM55+36 0:55:00
668MichelleNETTLETONL40+13 0:55:02
669LeeHORNSBYM279 0:55:02
670AnneSUTHERLANDL35+25 0:55:04
671TrishGOLDBERGL35 0:55:07
672AnthonyROGERSONM280 0:55:07
673JohnMILLSM55+37York Acorn0:55:08
674KarenMARKHAML45+13 0:55:09
675StuartCARRATTM55+38 0:55:13
676JohnVBUBLEVSKISM281 0:55:17
677JackieEDWARDSL45+14 0:55:20
678JohnPAWSONM55+39City Of Hull0:55:24
679DarenPINKNEYM282KC Crawlers0:55:25
680AndyKULASEHARAM283 0:55:26
681GillianLLOYDL40+14 0:55:28
682JimGALLACHERM40+116Rotherham Har + AC0:55:30
683DonaldHOAREM55+40 0:55:31
684AlanHAMPTONM284 0:55:32
685JonLAWSONM285 0:55:33
686RichardBOYCEM286 0:55:34
687DesmondGOLACHM50+42 0:55:35
688ChristineHEMINGWAYL40+15 0:55:40
689AlisonSMITHL35+26 0:55:45
690CraigSARGESONM287 0:55:49
691PaulHARDISTYM45+61 0:55:50
692DeniseOMBLERL50+9 0:55:53
693AndrewFRANKLINM40+117 0:55:54
694SusanSIMSONL45+15 0:55:55
695AndrewJORDANM40+118 0:55:56
696AndrewHOGGM40+119 0:55:58
697ShielaBENDALLL40+16 0:55:58
698PaulHARPERM45+62Robin Hood0:55:59
699ChrisTUTEM288 0:56:00
700JamesSIMPSONM55+41Swaledale Runners0:56:02
701BeverleyCOMPTONL35+27 0:56:04
702RichardCORBETTM45+63White City Road Runners0:56:05
703DarrenHODGSONM289 0:56:08
704FionaCOURTM290 0:56:10
705GaryKINGM45+64Jarvis Joggers0:56:17
706ClaireWIKEL40+17St Peters School0:56:18
707TimBENSONM291 0:56:19
708SamHALLL36St Peters School0:56:20
709PaulineANDREWSL40+18 0:56:21
710Carol AnnHOLMESL37 0:56:22
711MikeCLARKSONM40+120 0:56:24
712CaroleMOWFORTHL50+10 0:56:26
713MartinHOBDAYM50+43 0:56:27
714MichaelDUDILLM40+121 0:56:30
715TimMITCHELLM50+44 0:56:35
716AndyCOLLINSONM55+42City Of Hull0:56:38
717StephenBAKERM40+122 0:56:40
718LucyOXTOBYL38 0:56:43
719DenisHEALYM40+123 0:56:44
720MartynWESTBYM40+124 0:56:45
721IanMC CALLM55+43 0:56:47
722ElizabethPICKERINGL39 0:56:50
723PaulBELLM292 0:56:54
724DAVIDWALMSLEYM293 0:56:56
725EliseJIBSONLU186 0:56:56
726SteveJIBSONM45+65 0:56:58
727LeslieMARTINM45+66 0:56:59
728AnthonyWALLISM40+125 0:56:59
729DavePERRYM45+67Steel City Striders0:57:00
730TimWHITEM294 0:57:02
731Kellie LouiseSMITHL40Hull University AC0:57:06
732JohnDIBBM45+68 0:57:08
733PatWESTONL35+28 0:57:10
734DeniseOLDSL50+11Hull Springhead Harriers0:57:11
735DavidWOODM295 0:57:13
736MathewSISSONSMU1839 0:57:15
737KevinROBINSONM40+126White City Road Runners0:57:16
738RayKELLYM50+45 0:57:18
739PeterKELLYMU1840 0:57:20
740SamanthaFORDLU187St Peters School0:57:22
741JaniceHUTTONL35+29 0:57:23
742PaulKIRKM296 0:57:25
743SandraHOLDSWORTHL40+19 0:57:28
744SandraGREENHALGHL40+20 0:57:30
745SusanHUNTL35+30White City Road Runners0:57:34
746RaySMITHM55+44White City Road Runners0:57:36
747LizPURFIELDL35+31 0:57:38
748AnnemarieSHARPL41 0:57:40
749DerekCLARKM55+45 0:57:41
750HelenBINKSL42 0:57:42
751DavidPEARSONM40+127 0:57:42
752CarolGODSONL40+21 0:57:43
753MartinBROOKSM40+128 0:57:47
754NickSKELTONM297Palmers Chalmers0:57:49
755PaulHUTCHINSONM45+69 0:57:50
756PhillyWILSONL50+12Road Runners Club0:57:51
757GrahamDRURYM298 0:57:55
758MelvinWHITEM45+70 0:57:58
759BenLANDERMU1841St Peters School0:57:59
760PeterROGERSONM299 0:58:00
761ChristopherDAVISM50+46 0:58:03
762JohnCOWARDM50+47Killamarsh Kest0:58:04
763HelenSUDDABYL43 0:58:06
764PeterSUDDABYM55+46 0:58:06
765AngelaFAWCETTL44 0:58:08
766DavidPICKERINGM300 0:58:09
767PeterMC GLINCHEYM45+71 0:58:10
768KevinDEANM45+72 0:58:15
769JasminePOWELLL50+13Wold Vets AC0:58:20
770MaxineBARRETTL35+32 0:58:22
771NabielKHANM301 0:58:24
772LucyJUDEL45 0:58:27
773RoyMINTERM50+48 0:58:29
774DavidSHARPEM302 0:58:30
775IanCALVERTM40+129 0:58:37
776GrahamRICHM40+130St Giles Trodders0:58:40
777JosephSTONEM55+47Goole Vik Striders0:58:42
778GrahamWALKERM45+73 0:58:43
779SarahAKESTERL46Beverley Fire Station0:58:46
780AlisonWILDEYL35+33Beverley Fire Station0:58:48
781LyndaWILSONL35+34 0:58:50
782VickyPULLENL47Beverley Fire Station0:58:55
783TraceyBENNETTL35+35 0:58:56
784MichaelMURPHYMU1842Beverley Fire Station0:58:58
785JodyHOLWELLM303Beverley Fire Station0:58:59
786ChristineRHODESL35+36 0:59:00
787WilsonMARSHALLM304Beverley Fire Station0:59:02
788LeeSTEPHENSONM305Beverley Fire Station0:59:04
789RichardBUCKNALLM306Beverley Fire Station0:59:05
790JohnSTEVENSM307Beverley Fire Station0:59:06
791CharlesJENNEYM308Beverley Fire Station0:59:07
792CraigRUSHTONM309Beverley Fire Station0:59:08
793NeilWALKERM310Beverley Fire Station0:59:08
794JordanTHORNEM311Beverley Fire Station0:59:08
795AnthonyKEMPM312Beverley Fire Station0:59:09
796PhilipDREWM313Beverley Fire Station0:59:09
797KarenBATESL48 0:59:10
798RebeccaTHORPEL49 0:59:10
799PamelaSTABLERL45+16 0:59:10
800NigelSTABLERM45+74 0:59:10
801RachaelLAUGHTONL50 0:59:10
802AndrewCOMAISHM314Beverley Fire Station0:59:10
803DavidAKESTERM40+131Riverview Gym0:59:11
804MalcolmBRADFORDM40+132Beverley Fire Station0:59:12
805RebeccaGALLAGHERL51 0:59:13
806OwenFRANCISM315 0:59:15
807Shaun AndrewHARRISONM316Beverley Fire Station0:59:16
808JulieDODDL35+37Beverley Fire Station0:59:19
809AshleyWALKERM317Beverley Fire Station0:59:20
810MaryAHERNEL40+22Vicar Lane Bouncers0:59:23
811LeeBARKERM40+133Princes Trust0:59:25
812PeterTAYLORM50+49St Peters School0:59:27
813JoannaROGERSONL35+38 0:59:30
814SaraTIMMONSL52 0:59:45
815MaryPATONL50+14 0:59:48
816HelenRICKARDL53 0:59:54
817LeeRICKARDM318 0:59:55
818DeanHOWARDM45+75The Howling Fools0:59:56
819BrianWHITEM55+48 0:59:58
820DanielleAWTYL54 1:00:00
821AngelaMC LOUGHLINL40+23 1:00:18
822DavidPATONM50+50 1:00:18
823RobertREAYM55+49Haltemprice RRC1:00:23
824SaaraRILATTL55 1:00:25
825JoanneRICHARDSL35+39 1:00:27
826MargaretBUSHNELLL40+24Hull Springhead Harriers1:00:32
827DianeRILEYM319 1:00:37
828Susan JaynePRATTNDBx 1:00:39
829PaulWILKINSONM320 1:00:40
830TracyWELSHL35+40Hull Springhead Harriers1:00:43
831JackieSHIELDSL56 1:00:48
832MickSHIELDSM55+50 1:00:49
833JonRAPERM321 1:00:54
834TonyCHAPPELLM45+76 1:00:54
835KatherineROSSL40+25 1:01:00
836AnnSCAIFEL57 1:01:05
837DerekGILLM55+51Bingley Harriers1:01:09
838WebsterAINSLEYL35+41 1:01:10
839AvrilREADINGL50+15Scarboro' AC1:01:10
840JennyREDSHAWL35+42 1:01:17
841KathleenBULMERL40+26 1:01:17
842JuneCLARKEL50+16 1:01:20
843ClareCARTERL45+17 1:01:26
844HilaryTROOTEL35+43Beverley AC1:01:35
845TinaLYONSL58 1:01:36
846TimSTEPHENSONM322 1:01:44
847EmmaSMITHL59 1:01:48
848GemmaSALVIDGEL60 1:01:50
849KarenGRANTL61 1:01:50
850JohnHOPKINSM323 1:01:50
851PatriciaHAYL45+18 1:01:56
852GregDOUGLASM324 1:02:00
853WendyBAXTERL35+44 1:02:04
854MichelleATKINSL35+45Knavesmire Harriers1:02:05
855AbiCOLLINSLU188 1:02:06
856KateGIRKINGL35+46Beverley AC1:02:07
857TerryBEVENM325 1:02:18
858JamesSOWERBYM326 1:02:19
859AndrewSHARPEM40+134 1:02:20
860BruceBROWNM45+77 1:02:25
861MaggieOJAKL40+27 1:02:31
862HelenCORYL45+19Louth A C1:02:31
863StuartLUMBM55+52Barracuda Tri1:02:42
864RobertTAYLORM40+135Royal Mail1:02:45
865JoanneDIXONL62 1:02:50
866FranklynMARKSM50+51Wold Vets AC1:02:50
867AdrianSMITHM40+136 1:02:52
868AmandaWALTONL35+47 1:02:53
869NeilROBINSONM327 1:02:54
870BrunoGUERINM328 1:02:59
871ToniBIRDL63 1:03:00
872John PaulHEARNM45+78 1:03:02
873ChrisJACKSONM329Hymers College1:03:04
874MaxineLEIGHL64 1:03:09
875MalcolmWILLIAMSONM50+52Jarvis Joggers1:03:15
876JohnANDREWSM40+137 1:03:16
877NickTORDOFFM40+138St Giles Trodders1:03:24
878GillCROWL40+28 1:03:37
879JayneBOOTL65Hull Springhead Harriers1:03:37
880StevenHOLWELLM330Withernsea Harriers1:03:44
881HelenJACKSONL66Hymers College1:03:45
882CharlotteBETTERIDGEL40+29 1:03:46
883DortheIVERSONL35+48 1:03:46
884PaulROBERTSM331 1:03:47
885AlisonCAWLEYL35+49 1:03:49
886JayneKINGSTONL35+50 1:03:49
887MartinO'REILLYM332 1:03:50
888AllisonPICKERINGL67 1:03:51
889KerryCARMICHAELL68 1:04:01
890PaulWHITEM333 1:04:08
891KarenJACKSONL35+51 1:04:14
892SarahBISBYL69 1:04:25
893SarahRICHL35+52St Giles Trodders1:04:26
894SamanthaCLEMINSHAWL70 1:04:29
895ClareJONESL35+53 1:04:29
896JulianTAYLORM334 1:04:29
897TracyFARROWL71 1:04:29
898PhilWALTONM45+79Jarvis Joggers1:04:39
899PearlCOLLINSM45+80Jarvis Joggers1:04:39
900FionaWATERSL72 1:04:39
901GeriantDAVIESM335 1:04:39
902NigelWATSONM40+139Billy Bear Bunch1:04:44
903AndyMETCALFM336Billy Bear Bunch1:04:44
904HelenHORTONL35+54 1:04:49
905MandyWALKERL35+55 1:04:59
906JonathanFORTM337St Peters School1:05:00
907DominicCROSSMU1843St Peters School1:05:00
908EleanorHANNAHL73St Peters School1:05:10
909AngelaSLOUGHL40+30 1:05:12
910StephanieWATTAML40+31 1:05:13
911DavidCOURTM55+53 1:05:14
912EmmaFARQUESONLU189St Peters School1:05:15
913LorraineWINTERL35+56 1:05:18
914SueFAIRCLOUGHL35+57 1:05:22
915RoselineDODGSONL45+20Hull Springhead Harriers1:05:24
916NicolaWORRELLL35+58Minster Fitness Club1:05:26
917ChantelBOOTHL74Beverley AC1:05:41
918RichardBAXTERM338Beverley Fire Station1:05:46
919LesleyMARTINL40+32 1:05:55
920AngelaHARRISONL35+59 1:06:08
921DeborahBELLL75 1:06:29
922JaneWELLSL35+60 1:06:29
923JudithHALLL35+61St Peters School1:06:45
924RuthBRYANTL45+21 1:06:45
925RuthDOUGLASL35+62 1:07:01
926Sarah ElizabethAINLEYL35+63 1:07:02
927LuiginaWILLIAMSONL40+33 1:07:11
928StellaMORRISL40+34 1:07:11
929MoragHAMPTONL35+64 1:07:12
930RossDAWSONM339 1:07:34
931JohnTHOMPSONM340Jarvis Joggers1:07:37
932DavidFARROWM341 1:07:41
933AnneVAN WRENL50+17 1:08:12
934JonVAN WRENM45+81 1:08:12
935AndrewTWEDDELLM342 1:08:18
936TinaANHOLML45+22Withernsea Harriers1:08:22
937NicoleMC INTYREL40+35St Giles Trodders1:08:26
938GillianGOLDENBERGL50+18 1:09:06
939HelenPENNL76 1:09:27
940JaneneSHEARSMITHL77 1:09:27
941ChristoperBURDALLM343 1:09:31
942MaryWARDELLL45+23 1:10:01
943CathyPERCIVALL78 1:10:18
944SuzanneWALTONL79Beverley AC1:10:37
945JoanneANNANL80Beverley AC1:10:47
946LindaSCHUMACHERL35+65Knavesmire Harriers1:10:51
947MargaretSHARKIEL50+19Knavesmire Harriers1:10:51
948SharonWIGHAML35+66 1:11:04
949TeriKENTL40+36Scun + Dist AC1:12:38
950RichardFINNM344 1:12:39
951AdeleHAWTHORNE-ROBSONL81 1:14:25
952GaryHANCOCKM40+140Killamarsh Kest1:14:28
953FionaGROVESL82 1:16:11
954AlexBURDALLL83 1:23:31
Back to year index - Top of page